CW8078 Weather Reports


time (UTC)temp
C
wind
direction
speed
KPH
gust
KPH
rain 1hr
cm
rain 24hr
cm
rain mn
cm
humidity
%
barometer
mb
20260902184803 36 160 0.0 0.0 0.00 0.00 0.00 51 1012.2
20260902184303 36 160 0.0 0.0 0.00 0.00 0.00 49 1012.3
20260902183803 37 163 0.0 1.6 0.00 0.00 0.00 48 1012.3
20260902183303 36 161 0.0 0.0 0.00 0.00 0.00 50 1012.4
20260902181803 36 281 0.0 0.0 0.00 0.00 0.00 50 1012.6
20260902181303 36 246 0.0 0.0 0.00 0.00 0.00 52 1012.6
20260902180803 36 172 0.0 0.0 0.00 0.00 0.00 51 1012.7
20260902180303 36 248 0.0 1.6 0.00 0.00 0.00 52 1012.7
20260902174302 36 189 0.0 0.0 0.00 0.00 0.00 52 1012.9
20260902173803 36 228 0.0 1.6 0.00 0.00 0.00 51 1013.0
20260902173302 36 157 0.0 1.6 0.00 0.00 0.00 53 1013.1
20260902171802 35 152 0.0 0.0 0.00 0.00 0.00 52 1013.1
20260902171302 35 142 0.0 0.0 0.00 0.00 0.00 54 1013.2
20260902170802 35 319 0.0 0.0 0.00 0.00 0.00 55 1013.3
20260902170305 35 234 0.0 0.0 0.00 0.00 0.00 54 1013.3
20260902164803 33 168 0.0 0.0 0.00 0.00 0.00 57 1013.4
20260902164303 33 170 0.0 0.0 0.00 0.00 0.00 57 1013.5
20260902163803 33 175 0.0 0.0 0.00 0.00 0.00 58 1013.4
20260902163303 33 196 0.0 1.6 0.00 0.00 0.00 59 1013.4
20260902161802 32 234 0.0 0.0 0.00 0.00 0.00 62 1013.6
20260902161303 32 184 0.0 0.0 0.00 0.00 0.00 60 1013.6
20260902160803 32 182 0.0 0.0 0.00 0.00 0.00 60 1013.6
20260902160302 32 221 0.0 0.0 0.00 0.00 0.00 61 1013.7
20260902154803 31 193 0.0 0.0 0.00 0.00 0.00 63 1013.7
20260902154303 31 207 0.0 0.0 0.00 0.00 0.00 64 1013.7
20260902153803 31 176 0.0 0.0 0.00 0.00 0.00 65 1013.7
20260902153303 31 171 0.0 0.0 0.00 0.00 0.00 66 1013.7
20260902151302 30 179 0.0 0.0 0.00 0.00 0.00 67 1013.7
20260902150303 30 131 0.0 0.0 0.00 0.00 0.00 67 1013.7
20260902144803 29 156 0.0 0.0 0.00 0.00 0.00 69 1013.7
20260902144303 29 153 0.0 0.0 0.00 0.00 0.00 71 1013.6
20260902143803 28 153 0.0 0.0 0.00 0.00 0.00 70 1013.6
20260902143303 28 153 0.0 0.0 0.00 0.00 0.00 70 1013.7
20260902141802 28 151 0.0 0.0 0.00 0.00 0.00 73 1013.7
20260902141302 27 167 0.0 0.0 0.00 0.00 0.00 74 1013.8
20260902140303 27 167 0.0 0.0 0.00 0.00 0.00 73 1013.8
20260902134803 26 137 0.0 0.0 0.00 0.00 0.00 75 1013.9
20260902134302 26 137 0.0 0.0 0.00 0.00 0.00 76 1013.8
20260902133802 26 150 0.0 0.0 0.00 0.00 0.00 76 1013.8
20260902133302 26 150 0.0 0.0 0.00 0.00 0.00 77 1013.9
20260902131803 25 150 0.0 0.0 0.00 0.00 0.00 82 1013.8
20260902131303 24 150 0.0 0.0 0.00 0.00 0.00 82 1013.9
20260902130302 23 150 0.0 0.0 0.00 0.00 0.00 85 1013.8
20260902124802 23 150 0.0 0.0 0.00 0.00 0.00 83 1013.8
20260902124303 23 150 0.0 0.0 0.00 0.00 0.00 83 1013.8
20260902123803 23 150 0.0 0.0 0.00 0.00 0.00 84 1013.8
20260902123302 23 150 0.0 0.0 0.00 0.00 0.00 84 1013.7
20260902121303 23 150 0.0 0.0 0.00 0.00 0.00 85 1013.5
20260902120802 23 150 0.0 0.0 0.00 0.00 0.00 85 1013.5
20260902120303 23 150 0.0 0.0 0.00 0.00 0.00 84 1013.5
20260902114303 23 150 0.0 0.0 0.00 0.00 0.00 83 1013.3
20260902113303 23 150 0.0 0.0 0.00 0.00 0.00 84 1013.3
20260902111803 22 150 0.0 0.0 0.00 0.00 0.00 86 1013.3
20260902111303 22 150 0.0 0.0 0.00 0.00 0.00 87 1013.3
20260902110803 22 150 0.0 0.0 0.00 0.00 0.00 87 1013.3
20260902110303 22 150 0.0 0.0 0.00 0.00 0.00 87 1013.2
20260902104802 22 150 0.0 0.0 0.00 0.00 0.00 86 1013.2
20260902104303 22 150 0.0 0.0 0.00 0.00 0.00 85 1013.2
20260902103803 23 150 0.0 0.0 0.00 0.00 0.00 85 1013.1
20260902103303 23 150 0.0 0.0 0.00 0.00 0.00 85 1013.1
20260902101803 23 150 0.0 0.0 0.00 0.00 0.00 85 1013.1
20260902101303 23 150 0.0 0.0 0.00 0.00 0.00 85 1013.1
20260902100803 23 150 0.0 0.0 0.00 0.00 0.00 85 1013.0
20260902100302 23 150 0.0 0.0 0.00 0.00 0.00 84 1012.9
20260902094803 23 150 0.0 0.0 0.00 0.00 0.00 84 1012.8
20260902093803 23 150 0.0 0.0 0.00 0.00 0.00 84 1012.8
20260902093303 23 150 0.0 0.0 0.00 0.00 0.00 82 1012.7
20260902091303 24 150 0.0 0.0 0.00 0.00 0.00 82 1012.6
20260902090803 24 150 0.0 0.0 0.00 0.00 0.00 82 1012.5
20260902090303 24 150 0.0 0.0 0.00 0.00 0.00 81 1012.4
20260902084803 25 150 0.0 0.0 0.00 0.00 0.00 80 1012.4
20260902084303 25 150 0.0 0.0 0.00 0.00 0.00 80 1012.3
20260902083803 25 150 0.0 0.0 0.00 0.00 0.00 79 1012.3
20260902083303 25 150 0.0 0.0 0.00 0.00 0.00 80 1012.4
20260902081802 25 150 0.0 0.0 0.00 0.00 0.00 81 1012.5
20260902081302 25 150 0.0 0.0 0.00 0.00 0.00 80 1012.5
20260902080303 26 150 0.0 0.0 0.00 0.00 0.00 78 1012.4
20260902074803 26 150 0.0 0.0 0.00 0.00 0.00 77 1012.2
20260902073803 25 150 0.0 0.0 0.00 0.00 0.00 80 1012.3
20260902073303 25 150 0.0 0.0 0.00 0.00 0.00 80 1012.4
20260902071803 25 150 0.0 0.0 0.00 0.00 0.00 80 1012.4
20260902071303 26 150 0.0 0.0 0.00 0.00 0.00 79 1012.4
20260902070803 26 150 0.0 0.0 0.00 0.00 0.00 78 1012.3
20260902070303 26 150 0.0 0.0 0.00 0.00 0.00 78 1012.3
20260902064803 26 150 0.0 0.0 0.00 0.00 0.00 77 1012.4
20260902064303 26 150 0.0 0.0 0.00 0.00 0.00 77 1012.4
20260902063803 26 150 0.0 0.0 0.00 0.00 0.00 77 1012.3
20260902063303 26 150 0.0 0.0 0.00 0.00 0.00 77 1012.4
20260902061803 26 150 0.0 0.0 0.00 0.00 0.00 75 1012.3
20260902061303 27 150 0.0 0.0 0.00 0.00 0.00 75 1012.3
20260902060803 27 150 0.0 0.0 0.00 0.00 0.00 76 1012.3
20260902060303 27 150 0.0 0.0 0.00 0.00 0.00 75 1012.2
20260902053803 26 138 0.0 0.0 0.00 0.00 0.00 77 1012.2
20260902053303 26 138 0.0 0.0 0.00 0.00 0.00 77 1012.3
20260902051803 26 138 0.0 0.0 0.00 0.00 0.00 76 1012.3
20260902051303 26 138 0.0 0.0 0.00 0.00 0.00 76 1012.3
20260902050803 27 138 0.0 0.0 0.00 0.00 0.00 75 1012.2
20260902050304 27 138 0.0 0.0 0.00 0.00 0.00 75 1012.2
20260902044804 27 138 0.0 0.0 0.00 0.00 0.00 73 1012.1
20260902043803 27 138 0.0 0.0 0.00 0.00 0.00 72 1012.1
20260902043303 28 138 0.0 0.0 0.00 0.00 0.00 71 1012.0
20260902041803 27 157 0.0 0.0 0.00 0.00 0.00 72 1011.9
20260902041303 27 157 0.0 0.0 0.00 0.00 0.00 72 1011.9
20260902040803 28 157 0.0 0.0 0.00 0.00 0.00 71 1011.9
20260902040303 28 157 0.0 0.0 0.00 0.00 0.00 71 1011.9
20260902034803 28 155 0.0 0.0 0.00 0.00 0.00 71 1012.0
20260902034303 28 123 0.0 0.0 0.00 0.00 0.00 71 1012.0
20260902033304 28 123 0.0 0.0 0.00 0.00 0.00 71 1012.1
20260902031803 27 123 0.0 0.0 0.00 0.00 0.00 71 1012.1
20260902031304 27 123 0.0 0.0 0.00 0.00 0.00 72 1012.1
20260902030304 27 123 0.0 0.0 0.00 0.00 0.00 73 1012.1
20260902024803 27 117 0.0 0.0 0.00 0.00 0.00 73 1011.9
20260902024303 27 117 0.0 0.0 0.00 0.00 0.00 75 1011.9
20260902023803 27 117 0.0 0.0 0.00 0.00 0.00 73 1011.8
20260902023303 27 117 0.0 0.0 0.00 0.00 0.00 73 1011.7
20260902021803 27 117 0.0 0.0 0.00 0.00 0.00 74 1011.6
20260902021303 27 117 0.0 0.0 0.00 0.00 0.00 74 1011.6
20260902020803 27 117 0.0 0.0 0.00 0.00 0.00 75 1011.6
20260902020303 27 117 0.0 0.0 0.00 0.00 0.00 75 1011.5
20260902014803 27 117 0.0 0.0 0.00 0.00 0.00 73 1011.4
20260902014303 27 117 0.0 0.0 0.00 0.00 0.00 72 1011.4
20260902013303 28 117 0.0 0.0 0.00 0.00 0.00 72 1011.3
20260902011803 28 117 0.0 0.0 0.00 0.00 0.00 69 1011.2
20260902011303 28 117 0.0 0.0 0.00 0.00 0.00 70 1011.2
20260902010803 28 117 0.0 0.0 0.00 0.00 0.00 70 1011.2
20260902010303 28 117 0.0 0.0 0.00 0.00 0.00 70 1011.2
20260902004803 28 117 0.0 0.0 0.00 0.00 0.00 71 1011.2
20260902004304 29 117 0.0 0.0 0.00 0.00 0.00 70 1011.1
20260902003803 29 117 0.0 0.0 0.00 0.00 0.00 70 1011.1
20260902003304 29 117 0.0 0.0 0.00 0.00 0.00 68 1011.2
20260902001303 30 117 0.0 0.0 0.00 0.00 0.00 68 1011.1
20260902000803 30 117 0.0 0.0 0.00 0.00 0.00 69 1011.1
20260902000304 30 117 0.0 0.0 0.00 0.00 0.00 67 1011.1
20260901234303 31 117 0.0 0.0 0.00 0.00 0.00 66 1011.3
20260901233303 31 117 0.0 0.0 0.00 0.00 0.00 64 1011.2
20260901231804 32 117 0.0 0.0 0.00 0.00 0.00 67 1011.3
20260901231303 32 117 0.0 0.0 0.00 0.00 0.00 65 1011.3
20260901230803 32 117 0.0 0.0 0.00 0.00 0.00 65 1011.3
20260901230303 32 117 0.0 0.0 0.00 0.00 0.00 62 1011.3
20260901224803 32 5 0.0 0.0 0.00 0.00 0.00 63 1011.2
20260901224303 32 5 0.0 0.0 0.00 0.00 0.00 63 1011.2
20260901223804 32 5 0.0 0.0 0.00 0.00 0.00 62 1011.2
20260901223303 33 5 0.0 0.0 0.00 0.00 0.00 61 1011.3
20260901221803 33 5 0.0 0.0 0.00 0.00 0.00 57 1011.4
20260901221303 33 5 0.0 0.0 0.00 0.00 0.00 56 1011.4
20260901220803 33 5 0.0 0.0 0.00 0.00 0.00 52 1011.4
20260901220303 33 5 0.0 0.0 0.00 0.00 0.00 59 1011.3
20260901214804 33 5 0.0 0.0 0.00 0.00 0.00 54 1011.3
20260901214303 33 5 0.0 0.0 0.00 0.00 0.00 54 1011.4
20260901213803 33 5 0.0 0.0 0.00 0.00 0.00 56 1011.4
20260901211303 34 5 0.0 0.0 0.00 0.00 0.00 51 1011.6
20260901210803 35 5 0.0 0.0 0.00 0.00 0.00 52 1011.6
20260901210304 34 5 0.0 0.0 0.00 0.00 0.00 54 1011.6
20260901204803 33 327 0.0 0.0 0.00 0.00 0.00 59 1011.8
20260901204303 33 327 0.0 0.0 0.00 0.00 0.00 60 1011.9
20260901203803 33 319 0.0 0.0 0.00 0.00 0.00 62 1011.9
20260901203304 33 319 0.0 0.0 0.00 0.00 0.00 61 1011.9
20260901200803 35 319 0.0 0.0 0.00 0.00 0.00 46 1012.3
20260901200303 35 319 0.0 0.0 0.00 0.00 0.00 47 1012.4
20260901194803 35 319 0.0 0.0 0.00 0.00 0.00 52 1012.5
20260901194303 35 319 0.0 0.0 0.00 0.00 0.00 50 1012.5
20260901193803 35 319 0.0 0.0 0.00 0.00 0.00 53 1012.5
20260901193303 36 319 0.0 0.0 0.00 0.00 0.00 49 1012.6
20260901191803 36 318 0.0 0.0 0.00 0.00 0.00 46 1012.7
20260901190803 36 224 0.0 0.0 0.00 0.00 0.00 46 1012.8